AEHF-3 (USA 246)

Last updated on Mon Sep 15 2025 00:02:48 GMT+0000 (Coordinated Universal Time)

1 39256U 13050A 25257.13264956 .00000018 00000+0 00000+0 0 9998 2 39256 4.6068 69.6391 0091548 179.3563 27.8819 1.00273977 42889
UTC large
Height (km)
Speed (km/s)
/
Latitude / Longitude
Inclination (degrees)
Orbital Period (minutes)
Azimuth
Elevation
Range (km)
Doppler Factor

Next 0 passes for location: London (51.5072 / 0.1276)

Sorry there are no passes over London.